Temperature
15 16 16 16 19 20 20 19 18 17 17 15 14 15 17 17 17 16 11 11 11 12 12 12 12 12 13 13 13 14 14 14 14 14 14 14 14 14 14 14 14 14 14 14 14 14 14 14 14
15 15 16 17 20 20 20 18 17 16 14 13 13 14 15 14 11 10 10 11 11 11 12 12 12 12 12 13 13 13 13 14 14 14 14 14 14 14 14 14 14 14 14 14 14 14 14 14 14
15 15 16 18 19 20 19 17 16 14 13 13 13 13 13 12 10 10 10 11 11 11 11 12 12 12 12 13 13 13 13 13 14 14 14 14 14 14 14 14 14 14 14 14 14 14 14 14 14
14 15 16 18 18 17 17 16 15 14 13 12 13 13 11 10 9 10 10 10 11 11 11 11 12 12 12 12 12 13 13 13 13 13 13 14 14 14 14 14 14 14 13 13 13 13 13 13 13
14 16 18 18 17 16 15 14 13 14 14 12 12 13 11 9 9 10 10 10 10 10 10 11 11 11 12 12 12 12 12 13 13 13 13 13 13 13 13 13 13 13 13 13 13 13 13 13 13
14 16 18 18 17 15 14 12 13 14 13 11 11 12 10 9 9 9 9 10 10 10 10 10 11 11 11 12 12 12 12 12 12 13 13 13 13 13 13 13 13 13 13 13 13 13 13 13 13
15 16 17 17 16 15 13 11 12 13 12 11 10 11 10 8 9 9 9 9 9 9 10 10 10 11 11 11 11 12 12 12 12 12 12 13 13 13 13 13 13 13 13 13 12 12 12 12 12
12 15 15 15 15 14 12 11 10 11 11 9 9 10 9 8 8 8 8 8 9 9 9 10 10 10 10 11 11 11 11 11 11 12 12 12 12 12 12 12 12 12 12 12 12 12 12 12 12
11 15 15 14 14 13 10 10 9 8 8 8 7 7 7 7 8 8 8 8 8 9 9 9 9 10 10 10 10 11 11 11 11 11 11 11 12 12 12 12 12 12 12 12 12 12 12 12 12
12 15 13 12 12 11 10 9 8 9 9 8 7 7 7 7 7 7 7 8 8 8 8 9 9 9 9 10 10 10 10 10 10 11 11 11 11 11 11 11 11 12 12 12 12 12 12 11 11
11 12 10 9 9 9 9 8 8 9 10 9 8 6 6 6 6 7 7 7 7 7 8 8 8 9 9 9 9 9 10 10 10 10 10 10 11 11 11 11 11 11 11 11 11 11 11 11 11
10 9 9 8 7 7 8 8 8 8 8 7 7 6 6 6 6 6 6 6 7 7 7 8 8 8 8 9 9 9 9 9 10 10 10 10 10 10 10 10 10 10 11 11 11 11 11 10 10
9 8 7 6 6 6 7 7 7 7 6 6 6 6 5 5 5 5 5 6 6 6 7 7 7 7 8 8 8 8 8 9 9 9 9 10 10 10 10 10 10 10 10 10 10 10 10 10 10
8 7 7 6 6 6 7 7 6 6 5 5 5 5 5 5 5 5 5 5 6 6 6 7 7 7 7 7 7 8 8 8 8 9 9 9 9 9 9 9 9 9 10 10 10 10 10 10 10
7 8 8 7 7 6 7 8 7 6 5 5 5 5 4 4 4 4 4 5 5 5 5 6 6 6 7 7 7 7 7 7 8 8 8 8 9 9 9 9 9 9 9 9 9 9 9 9 9
8 9 10 8 7 6 7 9 8 5 4 5 4 4 4 4 4 4 4 4 4 5 5 5 5 6 6 6 6 6 6 7 7 7 8 8 8 8 8 8 8 9 9 9 9 9 9 9 9
9 10 10 9 7 7 7 8 8 4 4 5 4 4 4 3 3 3 3 4 4 4 4 5 5 5 5 5 6 6 6 6 6 7 7 7 7 8 8 8 8 8 8 8 8 8 8 8 8
10 10 9 9 7 6 7 8 7 5 4 4 4 4 3 3 3 3 3 3 3 4 4 4 4 4 5 5 5 5 5 5 6 6 6 7 7 7 7 7 8 8 7 8 8 8 8 8 8
8 8 8 8 6 6 7 7 7 5 4 4 4 3 3 3 3 2 3 3 3 3 3 3 4 4 4 4 4 4 5 5 5 6 6 6 6 6 7 7 7 7 7 7 7 7 7 7 7
7 7 8 7 6 6 6 6 6 5 4 4 4 3 3 3 2 2 2 2 3 3 3 3 3 3 3 4 4 4 4 4 5 5 5 5 6 6 6 6 6 6 6 6 6 6 6 6 6
7 7 7 6 6 5 5 7 7 6 4 3 3 3 2 2 2 2 2 2 2 2 2 2 2 3 3 3 3 3 3 4 4 5 5 5 5 5 6 6 6 6 6 6 6 6 6 6 6
7 6 5 5 6 7 5 8 8 6 5 4 3 2 2 1 1 1 1 1 1 1 2 2 2 2 2 2 3 3 3 3 4 4 4 4 5 5 5 5 5 5 5 6 6 6 6 6 5
5 4 4 4 5 6 5 6 8 6 5 5 4 2 2 1 1 1 1 1 1 1 1 1 2 2 2 2 2 2 2 3 3 3 3 4 4 4 4 5 5 5 5 5 5 5 5 5 5
4 4 4 4 5 6 6 6 8 7 5 5 4 2 1 0 0 0 0 1 1 1 1 1 1 1 2 2 2 2 2 2 2 3 3 3 3 4 4 4 4 4 4 4 4 5 5 5 5
4 5 7 7 7 8 4 5 7 6 4 4 3 2 1 0 0 -0 -0 0 0 0 0 0 1 1 1 1 1 1 2 2 2 2 2 3 3 3 3 3 3 3 4 4 4 4 4 4 4
4 5 6 7 8 8 4 5 7 4 2 1 1 1 0 -0 -0 -0 -0 -0 -0 -0 -0 -0 0 0 1 1 1 1 1 1 2 2 2 2 2 2 2 3 3 3 3 3 3 3 3 4 4
4 4 3 5 4 4 6 6 5 3 3 2 1 0 -0 -1 -1 -1 -1 -1 -1 -1 -1 -0 -0 0 0 0 1 1 1 1 1 1 1 1 2 2 2 2 2 2 2 2 2 3 3 3 3
2 3 3 4 5 6 7 6 6 4 3 2 1 0 -0 -1 -1 -1 -1 -1 -1 -1 -1 -1 -1 -0 0 0 0 0 1 1 1 1 1 1 1 1 1 1 2 2 2 2 2 2 2 2 3
2 2 2 4 4 5 6 7 5 4 3 2 1 0 -1 -1 -1 -1 -1 -1 -1 -1 -1 -1 -1 -1 -0 -0 -0 -0 0 0 0 0 0 1 1 1 1 1 1 1 1 2 2 2 2 2 2
1 2 2 3 3 3 4 5 2 2 1 0 -0 -1 -1 -2 -2 -2 -2 -2 -2 -1 -1 -1 -1 -1 -1 -1 -1 -1 -1 -1 -1 -0 -0 -0 0 0 0 1 1 1 1 1 1 1 1 2 2
Wind_Speed
8 5 2 2 4 4 6 4 3 4 3 1 1 1 1 1 1 2 3 4 5 4 4 3 5 6 5 5 6 6 6 7 7 8 8 8 9 8 9 9 9 10 11 12 13 13 13 14 14
5 3 2 2 5 7 6 5 6 3 2 1 1 0 1 1 3 3 2 4 5 4 4 4 5 6 5 5 6 6 6 6 7 7 8 8 9 9 8 8 9 10 11 12 12 12 13 13 14
2 2 2 3 5 7 5 5 5 3 2 1 1 0 1 0 2 2 3 3 4 4 4 5 6 5 6 4 5 6 6 6 6 7 7 8 8 9 8 8 9 10 11 11 12 12 12 13 13
1 1 2 5 7 5 3 3 4 4 3 1 1 1 1 2 2 2 3 3 3 4 4 5 7 6 5 4 4 5 4 5 5 7 7 8 8 8 9 8 9 9 10 11 11 11 12 12 12
1 2 4 6 7 5 3 3 5 4 4 2 2 2 1 2 4 3 3 3 3 3 4 5 7 6 5 4 4 4 4 4 5 6 7 7 7 8 8 8 9 9 9 10 11 11 11 12 12
1 2 6 8 8 5 4 3 5 3 3 2 2 3 2 2 4 4 3 3 3 3 4 4 5 6 6 5 4 4 4 4 5 5 7 7 7 7 8 8 8 8 8 9 10 11 11 11 11
2 3 6 7 7 6 4 3 4 3 3 2 1 3 2 1 4 4 3 3 3 4 4 4 3 4 5 5 4 4 5 5 5 5 6 7 7 8 8 7 7 8 8 9 9 10 11 11 11
1 2 4 5 6 6 3 3 1 2 2 1 2 2 2 3 4 3 2 2 2 3 4 4 4 4 3 2 4 4 4 5 5 5 5 6 7 7 7 7 7 7 8 9 9 10 10 11 10
1 4 5 5 4 3 3 2 0 1 2 1 1 3 3 1 2 2 2 2 3 4 4 4 4 4 4 2 2 3 3 4 4 4 5 4 5 5 6 6 7 7 8 9 10 10 10 10 10
1 4 4 1 1 2 3 2 1 2 3 3 2 2 1 1 2 2 3 3 3 4 4 4 4 4 3 3 2 1 1 2 3 3 3 3 3 3 4 6 7 7 8 9 10 10 9 7 7
1 1 3 1 0 1 3 2 2 4 4 4 4 3 2 2 2 3 3 3 3 3 4 4 4 4 3 2 2 2 1 1 2 2 3 3 3 3 3 4 5 6 7 7 8 8 6 5 5
2 2 1 1 1 2 2 2 3 5 4 4 4 3 3 3 3 4 4 4 4 3 3 3 3 3 3 2 2 1 1 1 1 1 2 2 2 2 2 2 3 4 4 5 5 4 5 5 5
2 2 1 1 1 1 2 4 4 4 5 3 2 3 3 3 3 3 4 4 4 4 3 3 3 2 2 2 2 2 1 1 1 1 1 2 2 2 2 2 2 3 3 3 3 4 4 4 5
2 2 1 0 0 1 2 4 3 4 3 2 2 2 2 2 3 3 4 4 4 4 4 3 3 2 1 1 1 1 1 1 1 1 1 2 2 2 2 2 2 2 3 3 3 4 3 3 4
3 2 2 1 1 1 2 4 4 3 2 2 1 1 1 2 2 3 4 4 4 4 4 3 2 2 1 0 0 1 0 0 0 1 1 2 2 2 2 3 2 2 3 3 3 4 3 3 3
2 3 3 1 1 1 4 7 2 1 2 3 2 2 2 2 3 3 3 3 3 4 4 3 2 1 1 0 1 0 1 0 0 1 1 1 2 3 2 3 2 2 3 3 3 3 3 3 3
2 3 4 2 2 2 4 8 3 2 3 4 3 3 3 2 3 3 3 3 3 3 3 3 1 1 1 1 1 1 1 0 1 1 1 1 2 2 2 2 2 3 2 2 3 3 3 3 3
3 4 4 5 2 4 7 10 6 4 5 5 5 4 3 3 3 3 3 3 3 3 2 2 1 1 1 1 1 1 0 0 1 1 1 2 2 1 2 2 3 3 3 2 3 3 3 3 3
3 5 6 5 2 5 9 12 10 6 6 6 5 5 4 4 3 3 3 2 2 3 3 2 1 1 1 1 1 2 1 1 1 1 2 2 2 1 2 3 3 3 3 3 4 4 4 3 3
3 5 5 4 3 5 8 12 8 5 6 5 6 5 5 4 4 3 3 2 2 2 2 2 1 1 1 1 2 2 2 2 1 1 2 1 2 1 2 3 3 3 3 3 4 4 4 3 3
4 5 5 6 6 4 6 7 6 3 3 4 4 5 5 4 4 4 3 3 2 2 2 2 2 2 2 1 1 1 1 2 1 1 2 1 1 1 1 2 3 3 3 3 5 5 5 5 4
5 3 5 5 5 4 2 6 6 4 3 3 4 4 5 4 4 4 4 4 3 3 3 3 3 2 2 2 3 3 3 3 2 2 2 2 2 1 2 3 3 3 3 3 4 5 5 6 5
3 3 4 4 5 5 4 6 6 2 4 4 4 5 5 4 4 4 5 4 4 3 3 3 3 2 2 2 3 4 4 3 2 2 2 2 2 2 2 2 3 3 3 3 4 4 6 6 6
2 2 2 3 3 5 4 5 6 3 4 4 4 5 5 5 4 4 5 4 4 3 3 3 3 2 2 2 3 4 5 4 3 4 3 3 2 2 2 2 2 3 3 4 4 4 5 5 6
1 2 3 3 3 4 2 6 7 2 3 4 5 5 5 5 4 4 5 4 4 4 4 3 3 2 2 3 3 3 3 4 4 4 4 3 3 2 3 2 3 3 3 4 4 4 4 5 6
2 2 2 4 5 5 3 7 4 1 3 5 5 5 6 6 5 5 5 5 5 5 4 4 3 3 3 3 3 3 3 3 3 5 4 4 3 3 3 3 4 4 4 4 3 4 4 4 5
2 2 2 3 3 5 6 6 5 3 4 5 5 6 6 6 6 6 5 5 5 5 5 4 4 4 3 3 3 3 3 3 4 5 5 4 4 3 4 4 4 4 4 4 4 4 4 5 5
2 1 2 3 4 6 7 6 4 3 5 5 6 7 7 7 7 7 6 6 5 5 4 5 4 3 3 3 3 3 3 4 5 4 4 4 4 4 4 4 4 4 4 5 5 5 5 5 5
2 2 3 3 4 5 7 5 0 3 4 5 6 7 8 8 8 7 6 6 5 4 4 4 3 3 3 3 3 3 2 3 3 3 4 4 4 4 5 5 5 5 5 5 5 5 5 5 5
3 3 4 4 4 5 6 6 3 2 5 6 8 8 8 8 8 7 6 5 4 4 4 4 4 4 3 3 2 2 2 2 2 2 3 3 4 4 4 4 5 5 6 6 6 6 6 6 6
Wind_Direction
330 324 281 225 201 214 224 199 187 168 160 105 11 264 253 309 311 72 57 34 10 7 7 13 11 17 40 58 59 70 79 86 101 111 111 108 107 108 107 105 108 110 108 106 105 102 101 101 100
326 309 229 209 221 223 216 190 183 166 130 118 113 227 212 100 38 43 37 13 1 9 16 19 20 21 34 61 65 68 77 82 93 101 108 107 105 104 105 104 103 108 109 108 106 103 102 103 103
324 315 215 193 220 232 207 174 172 152 144 166 133 3 317 39 45 32 17 2 3 16 22 23 20 22 30 56 70 68 66 73 92 97 101 107 105 102 102 101 99 103 109 111 109 106 106 105 105
276 180 189 213 214 224 218 172 168 169 176 179 182 149 124 49 16 16 17 13 13 17 20 26 17 16 25 43 67 70 72 65 88 100 99 101 104 104 100 96 97 97 104 111 111 110 109 108 107
291 211 198 209 214 207 209 189 183 188 192 198 210 208 163 61 20 24 22 15 10 6 14 26 21 14 22 34 61 65 75 72 82 105 104 100 101 102 102 97 97 96 102 109 113 113 113 110 108
189 215 218 217 206 200 185 183 192 196 193 197 214 210 179 56 13 1 6 359 1 1 6 18 23 19 19 24 51 63 69 78 76 104 104 101 98 102 101 102 101 101 107 107 111 114 115 113 110
224 215 226 220 206 205 188 189 195 210 208 205 229 211 194 25 354 344 346 349 4 8 4 3 8 13 16 21 35 58 67 76 84 87 100 98 98 99 102 101 102 101 107 111 108 117 117 115 112
357 181 198 207 210 205 167 176 202 235 216 123 205 220 229 302 330 326 331 342 360 4 1 0 358 358 358 5 30 44 71 87 97 92 86 100 105 104 101 104 102 103 106 114 111 112 117 116 112
261 214 217 207 209 187 157 192 242 262 186 212 242 289 300 303 311 316 329 337 350 354 352 352 354 358 354 342 13 35 72 90 111 105 92 101 122 124 123 107 101 106 110 115 113 112 114 116 113
283 217 213 177 230 182 189 230 237 204 230 248 265 303 317 281 284 306 308 308 322 331 335 344 348 351 351 356 358 10 82 125 121 125 124 122 115 112 129 118 109 109 112 116 112 113 122 130 132
54 178 162 150 220 185 199 231 224 224 236 251 259 271 275 277 289 295 293 297 294 302 318 332 342 349 351 2 2 21 12 128 133 128 133 136 119 111 118 123 121 118 121 120 118 126 136 138 138
117 103 158 201 213 218 220 225 232 236 258 291 264 235 233 252 272 281 285 292 301 298 310 322 331 340 353 351 3 5 28 41 72 110 140 139 113 108 120 119 131 128 126 127 129 129 130 140 143
147 159 122 61 92 216 234 240 253 259 289 289 257 227 235 257 282 289 286 286 294 301 305 309 316 328 339 347 349 357 16 359 90 98 120 132 131 134 134 130 135 129 122 131 132 131 131 136 143
132 138 167 356 185 207 269 267 246 272 298 279 229 233 243 265 291 299 299 299 297 302 299 302 305 312 325 340 339 339 341 349 158 121 142 148 121 139 147 142 142 133 128 141 152 139 138 135 140
145 155 174 237 257 222 289 263 242 282 283 252 230 237 265 288 294 293 295 295 294 296 300 298 296 301 300 305 281 350 328 339 199 151 158 148 133 125 149 149 147 143 143 147 147 136 132 126 135
174 205 231 212 248 253 263 263 276 288 250 250 246 255 273 290 299 302 300 298 298 296 303 299 297 291 263 180 204 10 347 22 25 137 144 148 135 129 132 147 145 148 145 142 143 141 137 131 140
190 244 256 256 204 267 252 265 293 270 256 253 251 259 269 283 310 320 318 312 306 301 303 301 282 262 244 173 147 108 17 38 34 86 86 81 108 127 136 133 141 152 146 144 151 147 149 142 139
246 259 257 266 255 269 256 264 278 257 255 256 256 262 269 274 288 300 313 324 328 323 319 304 266 256 237 167 155 155 357 59 39 83 98 97 79 99 132 137 138 147 153 158 163 157 150 150 144
245 248 266 273 280 273 260 271 275 256 253 262 261 263 268 279 286 300 313 333 345 353 347 336 298 251 228 197 201 201 234 231 209 112 121 117 112 109 138 145 145 142 164 173 170 160 152 143 149
255 263 274 282 288 274 276 277 268 245 239 257 268 261 262 280 295 301 309 322 328 335 329 314 289 265 243 232 228 212 231 215 188 152 130 129 128 134 142 149 156 154 165 173 171 164 161 158 164
270 260 277 292 303 251 284 269 228 220 230 274 280 280 282 279 283 286 289 295 296 303 300 288 272 263 252 244 210 188 227 213 187 176 162 134 143 134 139 157 159 164 174 179 179 176 171 176 180
270 271 276 279 281 275 288 281 249 238 264 288 295 292 290 288 286 286 283 279 277 277 280 276 264 259 254 238 222 209 219 219 219 201 192 173 171 168 165 172 170 167 175 190 188 184 182 182 188
269 303 276 256 249 266 233 254 264 229 272 292 305 297 295 291 283 286 286 279 279 273 268 262 262 257 246 230 221 212 214 217 218 196 190 188 192 189 177 178 176 180 187 198 196 187 189 189 193
287 281 226 209 232 250 223 241 268 227 255 280 293 304 301 292 290 291 292 291 291 289 279 268 266 267 257 237 227 215 209 207 216 212 203 204 210 191 178 187 186 192 195 203 205 196 195 197 198
301 297 289 262 245 254 181 249 260 255 278 282 292 303 306 296 290 290 292 291 288 284 279 271 264 269 265 239 233 219 211 215 226 227 213 213 217 212 196 194 199 204 206 208 211 204 201 202 203
239 252 266 277 278 286 241 250 267 264 298 307 311 310 311 305 297 290 287 283 280 279 272 264 256 260 263 249 236 229 220 227 242 238 225 216 218 217 212 204 206 210 211 210 212 206 204 205 209
215 214 309 273 278 274 259 269 283 279 297 309 316 318 309 308 304 296 291 291 288 279 273 265 257 252 254 255 246 237 232 233 241 229 224 221 221 215 211 215 214 213 210 206 208 211 211 207 211
318 174 188 226 269 276 274 264 277 298 298 310 313 310 309 311 309 303 297 296 291 282 276 270 263 260 271 271 266 259 252 246 241 232 224 221 224 220 213 218 222 217 210 207 210 213 217 214 214
178 190 230 237 254 267 281 278 343 298 315 307 311 316 314 309 304 298 295 293 292 292 286 286 289 289 283 277 268 261 250 241 240 239 237 225 224 221 218 217 222 216 212 210 216 218 214 216 218
232 227 208 240 245 242 268 279 62 346 337 323 318 318 315 310 306 304 301 298 298 298 300 298 293 286 278 268 263 265 261 249 249 250 250 240 226 223 222 220 219 219 218 215 217 220 217 216 220
Height
1514 1514 1516 1518 1518 1514 1512 1516 1519 1522 1525 1529 1530 1529 1527 1528 1528 1534 1535 1532 1532 1532 1533 1533 1534 1534 1535 1535 1535 1536 1536 1537 1538 1539 1539 1539 1540 1540 1541 1541 1541 1542 1542 1542 1543 1543 1543 1543 1543
1514 1515 1517 1517 1512 1511 1511 1516 1521 1524 1528 1530 1530 1530 1529 1530 1532 1533 1532 1531 1532 1532 1532 1533 1533 1534 1534 1534 1535 1536 1536 1537 1537 1538 1539 1540 1540 1540 1541 1541 1542 1542 1543 1543 1543 1544 1544 1544 1544
1514 1515 1517 1514 1511 1507 1510 1518 1522 1527 1529 1530 1530 1531 1531 1532 1533 1532 1531 1531 1532 1532 1532 1532 1533 1533 1533 1534 1534 1535 1535 1536 1537 1538 1539 1539 1540 1541 1541 1542 1542 1543 1543 1544 1544 1544 1545 1545 1545
1514 1516 1517 1512 1510 1513 1515 1520 1524 1527 1529 1530 1530 1531 1532 1533 1533 1532 1531 1531 1532 1532 1532 1532 1532 1533 1533 1533 1534 1534 1535 1535 1536 1537 1538 1539 1540 1540 1541 1541 1542 1543 1543 1544 1544 1545 1545 1546 1546
1514 1515 1512 1511 1511 1516 1520 1523 1525 1525 1527 1529 1530 1530 1531 1532 1531 1531 1531 1530 1531 1531 1531 1531 1531 1532 1532 1532 1533 1533 1534 1535 1535 1536 1537 1538 1539 1540 1540 1541 1542 1543 1543 1544 1545 1545 1546 1546 1547
1515 1513 1508 1507 1511 1518 1523 1525 1526 1526 1527 1529 1530 1529 1530 1531 1530 1530 1530 1530 1530 1530 1530 1530 1531 1531 1531 1531 1532 1532 1533 1533 1534 1535 1536 1537 1538 1539 1540 1541 1541 1542 1543 1544 1545 1545 1546 1547 1547
1515 1511 1507 1507 1512 1517 1523 1526 1526 1526 1527 1529 1530 1529 1529 1530 1529 1529 1529 1529 1529 1529 1529 1529 1529 1529 1530 1530 1530 1531 1531 1532 1533 1533 1534 1536 1537 1538 1539 1540 1541 1542 1543 1543 1544 1545 1546 1547 1548
1514 1514 1512 1512 1513 1516 1524 1526 1527 1527 1527 1529 1530 1529 1529 1529 1528 1528 1528 1528 1528 1528 1527 1527 1527 1528 1528 1529 1529 1529 1530 1531 1532 1532 1533 1534 1535 1536 1537 1539 1540 1541 1542 1543 1544 1545 1546 1547 1548
1515 1514 1510 1514 1515 1519 1525 1526 1527 1527 1528 1528 1528 1529 1528 1527 1526 1526 1526 1526 1525 1525 1525 1525 1526 1526 1526 1527 1527 1528 1528 1529 1530 1531 1532 1533 1534 1535 1536 1537 1539 1540 1541 1542 1543 1545 1546 1547 1548
1516 1512 1515 1520 1521 1522 1525 1525 1526 1526 1526 1526 1527 1526 1526 1525 1524 1524 1524 1523 1523 1523 1523 1523 1523 1524 1524 1524 1525 1526 1526 1527 1528 1529 1530 1531 1532 1533 1534 1536 1537 1539 1540 1541 1542 1544 1545 1546 1547
1518 1517 1521 1523 1524 1524 1525 1525 1526 1525 1523 1524 1524 1524 1523 1523 1523 1522 1522 1521 1521 1521 1521 1521 1521 1521 1522 1522 1523 1524 1524 1525 1526 1527 1528 1529 1530 1531 1532 1534 1535 1537 1538 1540 1541 1543 1544 1545 1546
1521 1523 1523 1524 1525 1525 1525 1525 1525 1524 1523 1523 1523 1522 1521 1521 1521 1520 1520 1520 1519 1519 1519 1519 1519 1519 1519 1520 1520 1521 1521 1522 1523 1525 1526 1527 1528 1529 1530 1531 1533 1535 1536 1538 1540 1541 1543 1544 1545
1521 1524 1525 1525 1525 1525 1525 1524 1524 1523 1522 1521 1521 1520 1520 1519 1519 1519 1518 1518 1517 1516 1516 1516 1516 1516 1517 1517 1518 1518 1518 1519 1520 1521 1523 1524 1525 1527 1528 1529 1531 1532 1534 1536 1538 1539 1541 1542 1544
1523 1524 1525 1525 1525 1525 1524 1523 1523 1520 1520 1519 1518 1518 1518 1517 1517 1516 1515 1515 1514 1514 1514 1514 1514 1514 1514 1514 1515 1515 1516 1516 1518 1519 1520 1522 1523 1524 1525 1527 1528 1530 1532 1533 1535 1537 1539 1540 1542
1524 1524 1524 1524 1524 1524 1524 1520 1519 1519 1519 1518 1517 1516 1516 1515 1514 1514 1513 1512 1512 1512 1511 1511 1511 1511 1512 1512 1512 1512 1513 1514 1515 1516 1517 1519 1520 1521 1523 1524 1526 1527 1529 1531 1533 1535 1537 1538 1540
1523 1520 1517 1521 1524 1524 1525 1513 1516 1517 1517 1516 1515 1515 1514 1513 1513 1512 1511 1510 1510 1509 1509 1508 1509 1509 1509 1509 1510 1510 1511 1511 1512 1513 1515 1516 1517 1519 1521 1522 1523 1525 1527 1529 1531 1532 1534 1536 1538
1518 1515 1515 1518 1522 1522 1521 1513 1515 1516 1516 1514 1513 1513 1512 1511 1510 1509 1509 1508 1507 1507 1506 1506 1506 1506 1506 1507 1507 1507 1507 1508 1509 1511 1512 1513 1514 1516 1518 1519 1521 1523 1525 1527 1529 1530 1532 1534 1536
1515 1513 1515 1515 1519 1521 1518 1512 1513 1515 1514 1512 1511 1510 1509 1508 1508 1507 1507 1506 1505 1504 1504 1503 1503 1504 1504 1504 1504 1505 1505 1506 1506 1507 1509 1510 1512 1513 1515 1516 1518 1520 1522 1524 1526 1528 1530 1532 1534
1520 1518 1516 1516 1520 1520 1513 1511 1509 1511 1511 1509 1508 1507 1506 1506 1506 1505 1504 1503 1502 1502 1501 1501 1501 1501 1501 1501 1501 1501 1502 1502 1503 1504 1506 1507 1509 1511 1512 1513 1515 1517 1520 1522 1523 1525 1527 1529 1531
1521 1518 1514 1516 1520 1519 1513 1508 1506 1507 1507 1507 1506 1505 1504 1503 1502 1502 1501 1501 1500 1499 1499 1499 1498 1499 1499 1499 1499 1499 1499 1499 1500 1501 1503 1505 1506 1508 1509 1510 1512 1514 1516 1519 1521 1522 1524 1526 1528
1519 1517 1516 1518 1518 1517 1516 1501 1500 1503 1505 1505 1504 1503 1502 1501 1500 1499 1499 1498 1498 1497 1497 1497 1496 1496 1496 1496 1497 1497 1497 1497 1498 1498 1500 1502 1503 1505 1506 1507 1509 1511 1513 1515 1517 1519 1521 1523 1526
1516 1520 1521 1520 1517 1508 1515 1499 1492 1498 1501 1502 1501 1500 1499 1499 1498 1497 1496 1495 1495 1495 1494 1494 1494 1493 1493 1494 1494 1494 1494 1494 1495 1496 1497 1499 1500 1501 1503 1504 1506 1507 1510 1512 1514 1516 1518 1520 1522
1520 1523 1522 1520 1517 1513 1512 1509 1488 1497 1496 1497 1498 1498 1497 1497 1496 1495 1494 1493 1492 1492 1492 1491 1491 1491 1491 1491 1491 1492 1492 1492 1493 1494 1495 1496 1497 1498 1500 1501 1503 1504 1506 1508 1510 1512 1514 1516 1519
1525 1523 1521 1520 1515 1507 1507 1506 1485 1490 1493 1494 1496 1496 1496 1495 1494 1493 1492 1491 1490 1489 1489 1488 1488 1487 1487 1487 1488 1488 1489 1490 1490 1491 1492 1493 1494 1495 1496 1498 1499 1501 1503 1504 1507 1509 1511 1513 1515
1524 1517 1507 1504 1501 1495 1512 1507 1490 1492 1495 1495 1495 1495 1494 1493 1492 1490 1489 1487 1486 1486 1485 1485 1485 1484 1484 1484 1485 1485 1486 1486 1487 1488 1489 1490 1490 1491 1492 1494 1495 1497 1499 1501 1503 1505 1507 1509 1511
1523 1520 1512 1505 1495 1491 1507 1498 1488 1495 1496 1495 1495 1494 1493 1491 1489 1488 1486 1484 1484 1483 1482 1481 1481 1481 1481 1481 1481 1482 1482 1483 1484 1485 1485 1486 1487 1488 1489 1490 1492 1494 1496 1497 1499 1501 1503 1506 1508
1523 1521 1523 1517 1518 1512 1493 1491 1491 1493 1493 1493 1493 1492 1491 1489 1487 1485 1483 1482 1481 1480 1479 1478 1478 1478 1478 1478 1478 1478 1479 1479 1480 1481 1482 1483 1484 1485 1486 1487 1489 1490 1492 1494 1495 1498 1500 1502 1504
1528 1525 1523 1517 1509 1497 1487 1487 1485 1490 1490 1492 1492 1491 1489 1487 1485 1483 1481 1479 1478 1477 1476 1476 1475 1474 1474 1474 1474 1474 1474 1475 1476 1476 1477 1478 1480 1481 1482 1484 1485 1487 1489 1491 1492 1494 1496 1498 1500
1528 1527 1523 1517 1514 1503 1490 1483 1490 1491 1492 1492 1492 1490 1489 1486 1483 1481 1479 1477 1476 1474 1474 1472 1471 1471 1470 1470 1470 1471 1470 1472 1473 1473 1474 1475 1476 1477 1478 1480 1482 1483 1485 1487 1488 1490 1492 1494 1496
1526 1524 1523 1516 1512 1514 1501 1491 1494 1495 1495 1494 1492 1490 1488 1485 1483 1480 1477 1475 1474 1472 1471 1470 1469 1468 1468 1468 1468 1467 1467 1468 1469 1470 1470 1471 1472 1473 1474 1476 1478 1480 1481 1483 1484 1487 1488 1490 1492